TimeEDT,TemperatureF,Dew PointF,Humidity,Sea Level PressureIn,VisibilityMPH,Wind Direction,Wind SpeedMPH,Gust SpeedMPH,PrecipitationIn,Events,Conditions,WindDirDegrees,DateUTC
12:54 AM,37.0,10.9,34,29.96,10.0,NNW,17.3,24.2,N/A,,Clear,340,2013-03-22 04:54:00
1:54 AM,36.0,12.0,37,29.98,10.0,North,16.1,24.2,N/A,,Clear,350,2013-03-22 05:54:00
2:54 AM,35.1,12.0,39,29.99,10.0,NNW,12.7,21.9,N/A,,Clear,330,2013-03-22 06:54:00
3:54 AM,34.0,12.9,42,30.00,10.0,North,15.0,-,N/A,,Clear,350,2013-03-22 07:54:00
4:54 AM,33.1,12.9,43,30.00,10.0,North,10.4,-,N/A,,Clear,350,2013-03-22 08:54:00
5:54 AM,30.0,14.0,51,30.01,10.0,NW,8.1,-,N/A,,Clear,320,2013-03-22 09:54:00
6:54 AM,28.9,14.0,54,30.04,10.0,NW,8.1,-,N/A,,Clear,320,2013-03-22 10:54:00
7:54 AM,30.0,15.1,54,30.06,10.0,WNW,6.9,-,N/A,,Clear,300,2013-03-22 11:54:00
8:54 AM,35.1,15.1,44,30.08,10.0,NW,6.9,-,N/A,,Clear,310,2013-03-22 12:54:00
9:54 AM,36.0,12.9,39,30.09,10.0,Calm,Calm,-,N/A,,Clear,0,2013-03-22 13:54:00
10:54 AM,41.0,12.0,31,30.08,10.0,NNW,6.9,-,N/A,,Scattered Clouds,330,2013-03-22 14:54:00
11:54 AM,42.1,12.9,31,30.07,10.0,West,4.6,-,N/A,,Scattered Clouds,260,2013-03-22 15:54:00
12:54 PM,45.0,12.9,27,30.05,10.0,Variable,6.9,-,N/A,,Scattered Clouds,0,2013-03-22 16:54:00
1:54 PM,48.0,14.0,26,30.02,10.0,West,12.7,-,N/A,,Partly Cloudy,280,2013-03-22 17:54:00
2:54 PM,48.9,12.9,24,30.00,10.0,West,6.9,-,N/A,,Scattered Clouds,260,2013-03-22 18:54:00
3:54 PM,51.1,14.0,23,29.98,10.0,WSW,12.7,18.4,N/A,,Scattered Clouds,250,2013-03-22 19:54:00
4:54 PM,51.1,23.0,33,29.98,10.0,SW,11.5,-,N/A,,Clear,220,2013-03-22 20:54:00
5:54 PM,48.0,25.0,41,29.99,10.0,SSW,10.4,-,N/A,,Clear,200,2013-03-22 21:54:00
6:54 PM,46.0,28.0,50,30.00,10.0,SSW,8.1,-,N/A,,Clear,200,2013-03-22 22:54:00
7:54 PM,43.0,30.0,60,30.01,10.0,SSW,4.6,-,N/A,,Clear,210,2013-03-22 23:54:00
8:54 PM,41.0,30.9,67,30.02,10.0,SW,5.8,-,N/A,,Clear,220,2013-03-23 00:54:00
9:54 PM,39.0,30.0,70,30.03,10.0,Calm,Calm,-,N/A,,Clear,0,2013-03-23 01:54:00
10:54 PM,36.0,30.0,79,30.04,10.0,Calm,Calm,-,N/A,,Clear,0,2013-03-23 02:54:00
11:54 PM,37.0,28.0,70,30.05,10.0,SW,8.1,-,N/A,,Clear,230,2013-03-23 03:54:00